IBE238 LEMD-LEMG

Flight info

Callsign IBE238
Flight time 0h 45m
Altitude 31000
Route VTB N10 CRISA N864 VULPE
Aircraft A20N/M-SDE2E3FGHIRWXY/LB1

Departure

Time 2026-05-06 15:54
Airport Adolfo Suárez Madrid–Barajas Airport (LEMD)

Arrival

Time 2026-05-06 16:39
Airport Málaga-Costa del Sol Airport (LEMG)
Time Latitude Longitude Altitude Speed Heading
2026-05-06 15:30 40.49189 -3.58964 2022 ft 0 kts 271°
2026-05-06 15:43 40.49187 -3.58933 2033 ft 4 kts 279°
2026-05-06 15:43 40.49181 -3.58899 2029 ft 4 kts 303°
2026-05-06 15:44 40.49164 -3.58881 2031 ft 2 kts 359°
2026-05-06 15:44 40.49158 -3.58881 2030 ft 0 kts 360°
2026-05-06 15:50 40.49159 -3.58881 2030 ft 1 kts 360°
2026-05-06 15:51 40.49179 -3.58881 2033 ft 5 kts 360°
2026-05-06 15:51 40.49227 -3.58874 2032 ft 9 kts 20°
2026-05-06 15:51 40.49237 -3.58817 2027 ft 8 kts 89°
2026-05-06 15:51 40.49239 -3.58713 2025 ft 15 kts 88°
2026-05-06 15:52 40.49241 -3.58554 2016 ft 21 kts 90°
2026-05-06 15:52 40.49242 -3.58335 2011 ft 27 kts 89°
2026-05-06 15:52 40.49242 -3.58063 2001 ft 32 kts 90°
2026-05-06 15:52 40.49245 -3.57750 1991 ft 37 kts 87°
2026-05-06 15:53 40.49288 -3.57506 1985 ft 22 kts 53°
2026-05-06 15:53 40.49437 -3.57453 1983 ft 24 kts 359°
2026-05-06 15:53 40.49666 -3.57452 1985 ft 60 kts
2026-05-06 15:53 40.50351 -3.57459 1990 ft 132 kts 359°
2026-05-06 15:54 40.51436 -3.57472 2201 ft 165 kts 359°
2026-05-06 15:54 40.52570 -3.57485 2997 ft 162 kts 360°
2026-05-06 15:54 40.53694 -3.57488 3811 ft 161 kts
2026-05-06 15:54 40.54835 -3.57486 4413 ft 171 kts 358°
2026-05-06 15:55 40.56026 -3.57950 4841 ft 193 kts 324°
2026-05-06 15:55 40.57046 -3.59263 5283 ft 218 kts 311°
2026-05-06 15:55 40.58103 -3.60836 5754 ft 244 kts 310°
2026-05-06 15:55 40.59248 -3.62584 6355 ft 265 kts 312°
2026-05-06 15:56 40.60551 -3.64300 7440 ft 264 kts 316°
2026-05-06 15:56 40.61876 -3.65931 8767 ft 254 kts 316°
2026-05-06 15:56 40.63125 -3.67496 10168 ft 244 kts 313°
2026-05-06 15:56 40.64065 -3.69355 11037 ft 250 kts 289°
2026-05-06 15:57 40.64289 -3.71629 11873 ft 255 kts 261°
2026-05-06 15:57 40.63641 -3.73836 12576 ft 266 kts 231°
2026-05-06 15:57 40.62201 -3.75375 13357 ft 273 kts 202°
2026-05-06 15:57 40.60320 -3.75885 14064 ft 284 kts 184°
2026-05-06 15:58 40.58254 -3.75937 14376 ft 309 kts 177°
2026-05-06 15:58 40.56026 -3.75691 14640 ft 334 kts 175°
2026-05-06 15:58 40.53633 -3.75440 14970 ft 354 kts 177°
2026-05-06 15:58 40.51189 -3.75286 15716 ft 358 kts 179°
2026-05-06 15:59 40.48679 -3.75205 16543 ft 362 kts 180°
2026-05-06 15:59 40.46150 -3.75166 17337 ft 367 kts 181°
2026-05-06 15:59 40.43597 -3.75147 18109 ft 371 kts 181°
2026-05-06 15:59 40.41011 -3.75132 18795 ft 375 kts 182°
2026-05-06 16:00 40.38388 -3.75116 19483 ft 379 kts 182°
2026-05-06 16:00 40.35738 -3.75100 20174 ft 382 kts 182°
2026-05-06 16:00 40.33070 -3.75082 20849 ft 386 kts 183°
2026-05-06 16:00 40.30370 -3.75065 21518 ft 390 kts 183°
2026-05-06 16:01 40.27645 -3.75057 22186 ft 393 kts 185°
2026-05-06 16:01 40.24969 -3.75634 22821 ft 389 kts 201°
2026-05-06 16:01 40.22518 -3.76999 23482 ft 389 kts 208°
2026-05-06 16:01 40.20062 -3.78530 24039 ft 392 kts 209°
2026-05-06 16:02 40.17595 -3.80083 24603 ft 394 kts 209°
2026-05-06 16:02 40.15116 -3.81642 25145 ft 397 kts 208°
2026-05-06 16:02 40.12610 -3.83210 25645 ft 401 kts 208°
2026-05-06 16:02 40.10086 -3.84783 26174 ft 404 kts 208°
2026-05-06 16:03 40.07539 -3.86366 26687 ft 407 kts 208°
2026-05-06 16:03 40.05002 -3.87940 27183 ft 409 kts 208°
2026-05-06 16:03 40.02425 -3.89537 27653 ft 412 kts 208°
2026-05-06 16:03 39.99795 -3.91167 28124 ft 415 kts 208°
2026-05-06 16:04 39.97215 -3.92763 28575 ft 418 kts 208°
2026-05-06 16:04 39.94585 -3.94389 29084 ft 418 kts 208°
2026-05-06 16:04 39.91954 -3.96014 29534 ft 420 kts 208°
2026-05-06 16:04 39.89305 -3.97649 29926 ft 423 kts 208°
2026-05-06 16:05 39.86640 -3.99293 30308 ft 425 kts 208°
2026-05-06 16:05 39.83962 -4.00943 30685 ft 427 kts 208°
2026-05-06 16:05 39.81271 -4.02600 30871 ft 428 kts 208°
2026-05-06 16:05 39.78585 -4.04252 30904 ft 427 kts 208°
2026-05-06 16:06 39.73246 -4.07531 30885 ft 427 kts 208°
2026-05-06 16:06 39.67907 -4.10804 30895 ft 425 kts 208°
2026-05-06 16:07 39.62561 -4.14077 30899 ft 425 kts 208°
2026-05-06 16:07 39.57215 -4.17344 30894 ft 425 kts 208°
2026-05-06 16:08 39.51866 -4.20608 30894 ft 425 kts 208°
2026-05-06 16:08 39.44216 -4.25266 30893 ft 434 kts 208°
2026-05-06 16:09 39.33365 -4.31851 30889 ft 434 kts 208°
2026-05-06 16:09 39.22456 -4.38445 30886 ft 430 kts 208°
2026-05-06 16:10 39.11634 -4.44969 30889 ft 430 kts 208°
2026-05-06 16:10 39.00804 -4.51472 30877 ft 427 kts 208°
2026-05-06 16:11 38.91556 -4.56072 30874 ft 434 kts 197°
2026-05-06 16:11 38.77654 -4.59013 30882 ft 433 kts 193°
2026-05-06 16:12 38.65764 -4.61485 30877 ft 433 kts 194°
2026-05-06 16:12 38.55884 -4.63531 30837 ft 432 kts 194°
2026-05-06 16:13 38.44114 -4.65960 30871 ft 428 kts 194°
2026-05-06 16:13 38.30430 -4.68775 30867 ft 428 kts 194°
2026-05-06 16:14 38.18666 -4.71185 30862 ft 428 kts 194°
2026-05-06 16:14 38.08872 -4.73189 30843 ft 428 kts 194°
2026-05-06 16:15 37.97114 -4.75585 30825 ft 427 kts 194°
2026-05-06 16:15 37.91636 -4.76694 30371 ft 426 kts 194°
2026-05-06 16:15 37.88704 -4.77291 29736 ft 428 kts 194°
2026-05-06 16:16 37.84777 -4.78092 28110 ft 435 kts 194°
2026-05-06 16:16 37.82750 -4.78505 27239 ft 439 kts 193°
2026-05-06 16:16 37.79800 -4.79387 26285 ft 433 kts 203°
2026-05-06 16:16 37.77094 -4.80961 25598 ft 425 kts 213°
2026-05-06 16:17 37.74741 -4.83085 24841 ft 420 kts 223°
2026-05-06 16:17 37.72741 -4.85741 24064 ft 419 kts 233°
2026-05-06 16:17 37.71008 -4.88780 23622 ft 433 kts 235°
2026-05-06 16:17 37.69231 -4.91910 23382 ft 445 kts 235°
2026-05-06 16:18 37.67416 -4.95087 23105 ft 445 kts 235°
2026-05-06 16:18 37.65607 -4.98240 22845 ft 443 kts 234°
2026-05-06 16:18 37.63615 -5.01191 22569 ft 443 kts 226°
2026-05-06 16:18 37.61264 -5.03678 22214 ft 442 kts 216°
2026-05-06 16:19 37.58556 -5.05533 21310 ft 445 kts 204°
2026-05-06 16:19 37.55625 -5.06617 20398 ft 446 kts 192°
2026-05-06 16:19 37.52536 -5.06900 19501 ft 445 kts 180°
2026-05-06 16:19 37.49491 -5.06476 18793 ft 438 kts 174°
2026-05-06 16:20 37.46488 -5.05861 17929 ft 433 kts 173°
2026-05-06 16:20 37.43536 -5.05261 17030 ft 428 kts 173°
2026-05-06 16:20 37.40613 -5.04719 16273 ft 420 kts 174°
2026-05-06 16:20 37.37720 -5.04229 15972 ft 426 kts 174°
2026-05-06 16:21 37.34764 -5.03756 15868 ft 427 kts 174°
2026-05-06 16:21 37.31818 -5.03295 15875 ft 427 kts 174°
2026-05-06 16:21 37.28907 -5.02844 15871 ft 427 kts 175°
2026-05-06 16:21 37.25956 -5.02457 15866 ft 426 kts 179°
2026-05-06 16:22 37.22988 -5.02391 15877 ft 426 kts 181°
2026-05-06 16:22 37.20029 -5.02359 15878 ft 426 kts 181°
2026-05-06 16:22 37.17059 -5.02322 15862 ft 426 kts 181°
2026-05-06 16:22 37.14098 -5.02282 15869 ft 426 kts 181°
2026-05-06 16:23 37.11131 -5.02241 15873 ft 427 kts 181°
2026-05-06 16:23 37.08224 -5.02199 15861 ft 408 kts 181°
2026-05-06 16:23 37.05465 -5.02157 15873 ft 384 kts 181°
2026-05-06 16:23 37.02907 -5.02118 15866 ft 362 kts 181°
2026-05-06 16:24 37.00415 -5.02080 15737 ft 346 kts 181°
2026-05-06 16:24 36.98069 -5.02021 15331 ft 337 kts 176°
2026-05-06 16:24 36.95836 -5.01244 14728 ft 334 kts 154°
2026-05-06 16:24 36.94020 -4.99482 14125 ft 331 kts 131°
2026-05-06 16:25 36.92893 -4.97014 13537 ft 329 kts 109°
2026-05-06 16:25 36.92591 -4.94206 12871 ft 326 kts 88°
2026-05-06 16:25 36.93100 -4.91475 12225 ft 322 kts 64°
2026-05-06 16:25 36.94406 -4.89253 11595 ft 317 kts 40°
2026-05-06 16:26 36.96283 -4.87890 10977 ft 311 kts 16°
2026-05-06 16:26 36.98400 -4.87611 10395 ft 308 kts 351°
2026-05-06 16:26 37.00391 -4.88367 10109 ft 299 kts 336°
2026-05-06 16:26 37.02285 -4.89308 10004 ft 287 kts 339°
2026-05-06 16:27 37.04260 -4.90001 9995 ft 313 kts 347°
2026-05-06 16:27 37.06520 -4.90421 9976 ft 339 kts 353°
2026-05-06 16:27 37.08897 -4.90593 9938 ft 343 kts 357°
2026-05-06 16:27 37.11241 -4.90640 9819 ft 329 kts 358°
2026-05-06 16:28 37.13456 -4.90433 9644 ft 312 kts 14°
2026-05-06 16:28 37.15368 -4.89397 9589 ft 289 kts 33°
2026-05-06 16:28 37.16693 -4.87687 9570 ft 264 kts 62°
2026-05-06 16:28 37.17175 -4.85600 9546 ft 242 kts 92°
2026-05-06 16:29 37.16763 -4.83572 9550 ft 250 kts 123°
2026-05-06 16:29 37.15582 -4.82040 9551 ft 246 kts 152°
2026-05-06 16:29 37.13861 -4.81239 9552 ft 280 kts 168°
2026-05-06 16:29 37.11882 -4.80825 9530 ft 294 kts 174°
2026-05-06 16:30 37.09850 -4.80542 9480 ft 291 kts 175°
2026-05-06 16:30 37.08528 -4.80362 9319 ft 286 kts 175°
2026-05-06 16:30 37.05912 -4.80059 8789 ft 282 kts 181°
2026-05-06 16:30 37.03958 -4.80068 8414 ft 279 kts 181°
2026-05-06 16:31 37.02033 -4.80061 8029 ft 276 kts 181°
2026-05-06 16:31 37.00126 -4.80041 7658 ft 273 kts 181°
2026-05-06 16:31 36.98223 -4.80017 7286 ft 272 kts 180°
2026-05-06 16:31 36.96341 -4.79996 6917 ft 270 kts 181°
2026-05-06 16:32 36.94491 -4.79972 6560 ft 269 kts 180°
2026-05-06 16:32 36.92645 -4.79681 6243 ft 266 kts 167°
2026-05-06 16:32 36.90893 -4.78968 5898 ft 264 kts 161°
2026-05-06 16:32 36.89165 -4.78197 5514 ft 264 kts 161°
2026-05-06 16:33 36.87460 -4.77451 5360 ft 254 kts 160°
2026-05-06 16:33 36.85896 -4.76549 5235 ft 245 kts 151°
2026-05-06 16:33 36.84408 -4.75531 4987 ft 241 kts 151°
2026-05-06 16:34 36.81551 -4.73597 4516 ft 230 kts 152°
2026-05-06 16:34 36.80172 -4.72668 4194 ft 225 kts 152°
2026-05-06 16:34 36.78822 -4.71749 3882 ft 218 kts 149°
2026-05-06 16:34 36.77663 -4.70576 3532 ft 213 kts 131°
2026-05-06 16:35 36.76809 -4.69105 3245 ft 207 kts 121°
2026-05-06 16:35 36.76119 -4.67543 2994 ft 205 kts 117°
2026-05-06 16:35 36.75470 -4.65960 2725 ft 205 kts 118°
2026-05-06 16:35 36.74812 -4.64392 2491 ft 200 kts 118°
2026-05-06 16:36 36.74180 -4.62886 2203 ft 192 kts 118°
2026-05-06 16:36 36.73575 -4.61440 1948 ft 185 kts 118°
2026-05-06 16:36 36.72987 -4.60040 1702 ft 178 kts 118°
2026-05-06 16:36 36.72440 -4.58736 1483 ft 159 kts 118°
2026-05-06 16:37 36.71965 -4.57603 1257 ft 137 kts 118°
2026-05-06 16:37 36.71544 -4.56602 1059 ft 129 kts 121°
2026-05-06 16:37 36.71128 -4.55608 889 ft 128 kts 118°
2026-05-06 16:37 36.70764 -4.54662 724 ft 117 kts 118°
2026-05-06 16:38 36.70346 -4.53741 591 ft 120 kts 123°
2026-05-06 16:38 36.69955 -4.52830 475 ft 120 kts 118°
2026-05-06 16:38 36.69564 -4.51876 313 ft 122 kts 119°
2026-05-06 16:38 36.69175 -4.50960 117 ft 120 kts 119°
2026-05-06 16:39 36.68796 -4.50041 50 ft 112 kts 118°
2026-05-06 16:39 36.68518 -4.49387 47 ft 56 kts 118°
2026-05-06 16:39 36.68387 -4.49080 44 ft 37 kts 130°
2026-05-06 16:39 36.68255 -4.48913 42 ft 17 kts 148°
2026-05-06 16:40 36.68202 -4.48872 40 ft 5 kts 152°
2026-05-06 16:40 36.68152 -4.48839 39 ft 11 kts 152°
2026-05-06 16:40 36.68116 -4.48832 39 ft 1 kts 223°
2026-05-06 16:40 36.68109 -4.48844 38 ft 2 kts 252°
2026-05-06 16:41 36.68115 -4.48866 39 ft 5 kts 295°
2026-05-06 16:41 36.68140 -4.48927 40 ft 14 kts 297°
2026-05-06 16:41 36.68208 -4.49084 40 ft 24 kts 298°
2026-05-06 16:41 36.68277 -4.49277 40 ft 20 kts 265°
2026-05-06 16:42 36.68203 -4.49398 41 ft 16 kts 224°
2026-05-06 16:42 36.68129 -4.49488 42 ft 14 kts 220°
2026-05-06 16:42 36.68053 -4.49557 42 ft 12 kts 190°
2026-05-06 16:42 36.67988 -4.49518 41 ft 9 kts 130°
2026-05-06 16:43 36.67948 -4.49465 41 ft 7 kts 166°
2026-05-06 16:43 36.67902 -4.49485 42 ft 7 kts 211°
2026-05-06 16:43 36.67889 -4.49495 40 ft 0 kts 213°